Location: Cicognara
(44.9500°N, 10.4667°E)
Time: 15:37:52
(UTC+00:00)

Cosmos 1354 Rocket - Pass Details

Date: 20 June 2021
Orbit: 764 x 783 km, 74.0° (Epoch: 03 August)

Event Time Altitude Azimuth Distance (km) Brightness Sun altitude
Rises 21:44:57 0° 340° (NNW) 3,282 9.0 -18.3°
Reaches altitude 10° 21:47:22 10° 343° (NNW) 2,350 7.8 -18.4°
Maximum altitude 21:52:42 68° 67° (ENE) 843 4.1 -18.8°
Enters shadow 21:54:59 34° 140° (SE) 1,265 4.6 -18.9°
